Flag Island, MN

3:26 AM CDT on July 23, 2017 (GMT -0500)
Flag Island

Weather History for KFGN - March, 2014

Change the Weather History Date:

Sunday, March 16, 2014

  Actual Average Record
Temperature  
Mean Temperature 0 °F -  
Max Temperature 19 °F 26 °F 57 °F (2012)
Min Temperature -18 °F 7 °F -18 °F (1997)
Degree Days  
Heating Degree Days 64    
Moisture  
Dew Point -3 °F    
Average Humidity 76    
Maximum Humidity 93    
Minimum Humidity 57    
Precipitation  
Precipitation 0.00 in - - ()
Sea Level Pressure  
Sea Level Pressure 30.20 in    
Wind  
Wind Speed 7 mph (SSE)    
Max Wind Speed 28 mph    
Max Gust Speed 32 mph    
Visibility 9 miles    
Events Snow    
Averages and records for this station are not official NWS values.
T = Trace of Precipitation, MM = Missing Value Source: NWS Daily Summary

Daily Weather History Graph

Daily Weather History Graph

Search for Another Location

Airport or City:

Trip Planner

Search our weather history database for the weather conditions in past years. The results will help you decide how hot, cold, wet, or windy it might be!

Date:

Astronomy

Mar. 16, 2014 Rise Set
Actual Time 7:30 AM CDT 7:26 PM CDT
Civil Twilight 6:59 AM CDT 7:58 PM CDT
Nautical Twilight 6:21 AM CDT 8:35 PM CDT
Astronomical Twilight 5:43 AM CDT 9:13 PM CDT
Moon 7:49 PM CDT (3/16) 7:12 AM CDT (3/16)
Length of Visible Light 12h 59m
Length of Day
11h 55m
Full, 100% of the Moon is Illuminated
Mar 16
Full
Mar 16
Full
Mar 23
Last Quarter
Mar 30
New
Apr 7
First Quarter

Hourly Weather History & Observations

Time (CDT) Temp. Windchill Dew Point Humidity Pressure Visibility Wind Dir Wind Speed Gust Speed Precip Events Conditions
12:14 AM -5.8 °F - -11.2 °F 77% 30.50 in 10.0 mi Calm Calm - N/A   Clear
12:33 AM -5.8 °F - -11.2 °F 77% 30.50 in 10.0 mi Calm Calm - N/A   Clear
12:54 AM -7.6 °F - -13.0 °F 77% 30.49 in 10.0 mi Calm Calm - N/A   Clear
1:13 AM -4.0 °F - -9.4 °F 78% 30.49 in 10.0 mi Calm Calm - N/A   Clear
1:33 AM -5.8 °F - -11.2 °F 77% 30.49 in 10.0 mi Calm Calm - N/A   Clear
1:53 AM -5.8 °F - -11.2 °F 77% 30.49 in 10.0 mi Calm Calm - N/A   Clear
2:14 AM -7.6 °F - -13.0 °F 77% 30.50 in 10.0 mi Calm Calm - N/A   Clear
2:28 AM -9.4 °F - -14.8 °F 77% 30.49 in 10.0 mi Calm Calm - N/A   Clear
2:41 AM -9.4 °F - -14.8 °F 77% 30.49 in 10.0 mi Calm Calm - N/A   Clear
3:01 AM - - - N/A% 30.48 in 10.0 mi ESE 2.3 mph - N/A   Clear
3:24 AM -9.4 °F - -14.8 °F 77% 30.47 in 10.0 mi Calm Calm - N/A   Clear
3:29 AM -9.4 °F - -14.8 °F 77% 30.47 in 10.0 mi Calm Calm - N/A   Clear
3:54 AM -11.2 °F - -18.4 °F 70% 30.46 in 10.0 mi Calm Calm - N/A   Clear
4:13 AM -14.8 °F -24.8 °F -20.2 °F 77% 30.45 in 10.0 mi SSE 3.5 mph - N/A   Clear
4:34 AM -16.6 °F -29.3 °F -20.2 °F 84% 30.44 in 10.0 mi SSE 4.6 mph - N/A   Clear
4:54 AM -16.6 °F -26.8 °F -20.2 °F 84% 30.44 in 10.0 mi South 3.5 mph - N/A   Clear
5:13 AM -16.6 °F -29.3 °F -20.2 °F 84% 30.44 in 10.0 mi South 4.6 mph - N/A   Clear
5:34 AM -16.6 °F - -20.2 °F 84% 30.44 in 10.0 mi Calm Calm - N/A   Clear
5:53 AM -16.6 °F -26.8 °F -22.0 °F 76% 30.44 in 10.0 mi South 3.5 mph - N/A   Clear
6:14 AM -18.4 °F -28.9 °F -22.0 °F 84% 30.45 in 10.0 mi South 3.5 mph - N/A   Clear
6:33 AM -16.6 °F -29.3 °F -20.2 °F 84% 30.45 in 10.0 mi SSE 4.6 mph - N/A   Clear
6:53 AM -14.8 °F -27.2 °F -18.4 °F 84% 30.44 in 10.0 mi SSE 4.6 mph - N/A   Clear
7:13 AM -14.8 °F -24.8 °F -18.4 °F 84% 30.43 in 10.0 mi SSE 3.5 mph - N/A   Clear
7:33 AM -14.8 °F -27.2 °F -18.4 °F 84% 30.42 in 10.0 mi SSE 4.6 mph - N/A   Clear
7:53 AM -16.6 °F -29.3 °F -20.2 °F 84% 30.42 in 10.0 mi South 4.6 mph - N/A   Clear
8:14 AM -16.6 °F -31.3 °F -20.2 °F 84% 30.41 in 10.0 mi SE 5.8 mph - N/A   Clear
8:33 AM -13.0 °F -25.1 °F -18.4 °F 77% 30.40 in 10.0 mi SSE 4.6 mph - N/A   Clear
8:53 AM -14.8 °F -24.8 °F -20.2 °F 77% 30.40 in 10.0 mi South 3.5 mph - N/A   Clear
9:14 AM -14.8 °F -27.2 °F -20.2 °F 77% 30.38 in 10.0 mi South 4.6 mph - N/A   Clear
9:33 AM -13.0 °F -25.1 °F -18.4 °F 77% 30.37 in 10.0 mi South 4.6 mph - N/A   Clear
9:53 AM -9.4 °F -26.8 °F -14.8 °F 77% 30.35 in 10.0 mi SSE 9.2 mph - N/A   Clear
10:14 AM -7.6 °F -20.6 °F -13.0 °F 77% 30.34 in 10.0 mi South 5.8 mph - N/A   Clear
10:33 AM -7.6 °F -23.4 °F -13.0 °F 77% 30.31 in 10.0 mi SSE 8.1 mph - N/A   Clear
10:53 AM -5.8 °F -18.4 °F -11.2 °F 77% 30.30 in 10.0 mi South 5.8 mph - N/A   Clear
11:14 AM -2.2 °F -10.4 °F -7.6 °F 78% 30.30 in 10.0 mi SSW 3.5 mph - N/A   Clear
11:33 AM 1.4 °F -11.3 °F -5.8 °F 72% 30.29 in 10.0 mi South 6.9 mph - N/A   Clear
11:53 AM 3.2 °F -9.1 °F -4.0 °F 72% 30.27 in 10.0 mi SSE 6.9 mph - N/A   Clear
12:14 PM 6.8 °F -4.8 °F -0.4 °F 72% 30.26 in 10.0 mi SSE 6.9 mph - N/A   Clear
12:33 PM 8.6 °F -6.3 °F 1.4 °F 73% 30.25 in 10.0 mi South 11.5 mph - N/A   Clear
12:53 PM 10.4 °F -6.0 °F 1.4 °F 67% 30.22 in 10.0 mi SSE 15.0 mph - N/A   Clear
1:13 PM 12.2 °F -3.1 °F 1.4 °F 62% 30.21 in 10.0 mi SSE 13.8 mph - N/A   Mostly Cloudy
1:33 PM 14.0 °F -1.4 °F 1.4 °F 57% 30.21 in 10.0 mi SSE 15.0 mph - N/A   Mostly Cloudy
1:54 PM 15.8 °F 2.1 °F 3.2 °F 58% 30.19 in 10.0 mi SSE 12.7 mph - N/A   Mostly Cloudy
2:13 PM 15.8 °F 2.1 °F 5.0 °F 62% 30.18 in 10.0 mi SSE 12.7 mph - N/A   Mostly Cloudy
2:33 PM 15.8 °F 2.1 °F 6.8 °F 68% 30.16 in 10.0 mi SSE 12.7 mph - N/A   Mostly Cloudy
2:54 PM 17.6 °F 4.3 °F 6.8 °F 63% 30.13 in 10.0 mi SSE 12.7 mph - N/A   Mostly Cloudy
3:13 PM 17.6 °F 5.7 °F 6.8 °F 63% 30.11 in 10.0 mi South 10.4 mph - N/A   Mostly Cloudy
3:33 PM 19.4 °F 7.2 °F 8.6 °F 63% 30.09 in 10.0 mi SSE 11.5 mph - N/A   Mostly Cloudy
3:54 PM 19.4 °F 6.0 °F 8.6 °F 63% 30.07 in 10.0 mi SSE 13.8 mph - N/A   Mostly Cloudy
4:13 PM 19.4 °F 6.0 °F 8.6 °F 63% 30.05 in 10.0 mi SSE 13.8 mph - N/A   Mostly Cloudy
4:33 PM 19.4 °F 7.2 °F 8.6 °F 63% 30.03 in 10.0 mi SSE 11.5 mph - N/A   Scattered Clouds
4:54 PM 19.4 °F 5.0 °F 10.4 °F 68% 30.02 in 10.0 mi SSE 16.1 mph 20.7 mph N/A   Clear
5:13 PM 19.4 °F 2.8 °F 10.4 °F 68% 29.99 in 10.0 mi SSE 21.9 mph - N/A   Clear
5:33 PM 19.4 °F 2.8 °F 8.6 °F 63% 29.97 in 10.0 mi SSE 21.9 mph - N/A   Clear
5:54 PM 19.4 °F 2.5 °F 8.6 °F 63% 29.95 in 10.0 mi SSE 23.0 mph - N/A   Clear
6:13 PM 19.4 °F 2.5 °F 8.6 °F 63% 29.93 in 10.0 mi SSE 23.0 mph - N/A   Clear
6:33 PM 19.4 °F 2.8 °F 10.4 °F 68% 29.92 in 10.0 mi SSE 21.9 mph - N/A   Clear
6:54 PM 19.4 °F 2.8 °F 8.6 °F 63% 29.90 in 10.0 mi SSE 21.9 mph - N/A   Scattered Clouds
7:13 PM 19.4 °F 3.2 °F 10.4 °F 68% 29.89 in 10.0 mi SSE 20.7 mph - N/A   Scattered Clouds
7:33 PM 19.4 °F 3.2 °F 10.4 °F 68% 29.88 in 10.0 mi SSE 20.7 mph - N/A   Overcast
7:54 PM 19.4 °F 1.1 °F 10.4 °F 68% 29.87 in 7.0 mi SSE 27.6 mph 32.2 mph N/A Snow Light Snow
8:13 PM 19.4 °F 2.1 °F 10.4 °F 68% 29.86 in 7.0 mi SSE 24.2 mph 31.1 mph N/A Snow Light Snow
8:33 PM 19.4 °F 1.1 °F 12.2 °F 74% 29.85 in 2.5 mi South 27.6 mph 32.2 mph N/A Snow Light Snow
8:54 PM 17.6 °F 0.1 °F 15.8 °F 93% 29.84 in 0.8 mi SSE 23.0 mph - N/A Snow Snow
9:13 PM 17.6 °F 0.9 °F 15.8 °F 93% 29.84 in 0.8 mi SSE 20.7 mph - N/A Snow Snow
9:33 PM 17.6 °F 0.9 °F 15.8 °F 93% 29.84 in 0.8 mi SSE 20.7 mph - N/A Snow Snow
9:54 PM 17.6 °F 0.9 °F 15.8 °F 93% 29.83 in 0.8 mi SSE 20.7 mph - N/A Snow Snow
10:13 PM 17.6 °F -0.3 °F 15.8 °F 93% 29.80 in 1.0 mi SSE 24.2 mph 28.8 mph N/A Snow Snow
10:33 PM 17.6 °F 0.9 °F 15.8 °F 93% 29.78 in 1.0 mi SE 20.7 mph - N/A Snow Snow
10:54 PM 17.6 °F 1.3 °F 15.8 °F 93% 29.76 in 1.0 mi SE 19.6 mph 24.2 mph N/A Snow Snow
11:13 PM 17.6 °F 1.3 °F 15.8 °F 93% 29.75 in 1.0 mi SE 19.6 mph - N/A Snow Light Snow
11:33 PM 17.6 °F 0.1 °F 15.8 °F 93% 29.73 in 5.0 mi SSE 23.0 mph 27.6 mph N/A   Overcast
11:54 PM 17.6 °F 0.5 °F 15.8 °F 93% 29.71 in 2.5 mi SSE 21.9 mph 31.1 mph N/A   Overcast